Scottsbluff, NE

12:34 AM MST on November 17, 2019 (GMT -0700)
Heilig

Weather History for KBFF - July, 2019

Change the Weather History Date:

Thursday, July 11, 2019

  Actual Average Record
Temperature  
Mean Temperature 79 °F -  
Max Temperature 99 °F 90 °F 110 °F (1939)
Min Temperature 59 °F 58 °F 46 °F (1922)
Cooling Degree Days 14    
Growing Degree Days 29 (Base 50)    
Moisture  
Dew Point 32 °F    
Average Humidity 13    
Maximum Humidity 24    
Minimum Humidity 5    
Precipitation  
Precipitation 0.00 in - - ()
Sea Level Pressure  
Sea Level Pressure 29.97 in    
Wind  
Wind Speed 7 mph (ENE)    
Max Wind Speed 10 mph    
Max Gust Speed -    
Visibility 10 miles    
Events      
Averages and records for this station are not official NWS values.
T = Trace of Precipitation, MM = Missing Value Source: NWS Daily Summary

Daily Weather History Graph

Daily Weather History Graph

Search for Another Location

Airport or City:

Astronomy

Jul. 11, 2019 Rise Set
Actual Time 5:29 AM MDT 8:30 PM MDT
Civil Twilight 4:55 AM MDT 9:03 PM MDT
Nautical Twilight 4:12 AM MDT 9:46 PM MDT
Astronomical Twilight 3:22 AM MDT 10:36 PM MDT
Moon 3:43 PM MDT (7/11) 1:44 AM MDT (7/11)
Length of Visible Light 16h 07m
Length of Day
15h 00m
Waxing Gibbous, 74% of the Moon is Illuminated
Jul 11
Waxing Gibbous
Jul 16
Full
Jul 24
Last Quarter
Jul 31
New
Aug 7
First Quarter

Hourly Weather History & Observations

Time (MDT) Temp. Dew Point Humidity Pressure Visibility Wind Dir Wind Speed Gust Speed Precip Events Conditions
12:53 AM 60.1 °F - N/A% 30.14 in 10.0 mi ESE 6.9 mph - N/A   Clear
1:53 AM 60.1 °F - N/A% 30.12 in 10.0 mi ESE 6.9 mph - N/A   Clear
2:53 AM 60.1 °F - N/A% 30.10 in 10.0 mi East 8.1 mph - N/A   Clear
3:53 AM 60.1 °F - N/A% 30.08 in 10.0 mi East 8.1 mph - N/A   Clear
4:53 AM 59.0 °F - N/A% 30.07 in 10.0 mi East 8.1 mph - N/A   Clear
5:53 AM 59.0 °F - N/A% 30.07 in 10.0 mi East 6.9 mph - N/A   Clear
6:53 AM 63.0 °F - N/A% 30.06 in 10.0 mi ESE 8.1 mph - N/A   Clear
7:53 AM 66.9 °F - N/A% 30.05 in 10.0 mi ESE 9.2 mph - N/A   Clear
8:53 AM 71.1 °F - N/A% 30.05 in 10.0 mi SE 10.4 mph - N/A   Clear
9:53 AM 75.9 °F - N/A% 30.03 in 10.0 mi SE 10.4 mph - N/A   Clear
10:53 AM 82.0 °F - N/A% 30.00 in 10.0 mi Variable 4.6 mph - N/A   Clear
11:53 AM 86.0 °F - N/A% 29.97 in 10.0 mi East 4.6 mph - N/A   Clear
12:53 PM 91.9 °F - N/A% 29.94 in 10.0 mi Variable 3.5 mph - N/A   Clear
1:53 PM 97.0 °F - N/A% 29.91 in 10.0 mi NW 9.2 mph - N/A   Clear
2:53 PM 98.1 °F - N/A% 29.90 in 10.0 mi West 6.9 mph - N/A   Clear
3:53 PM 99.0 °F - N/A% 29.87 in 10.0 mi NW 6.9 mph - N/A   Clear
4:53 PM 95.0 °F - N/A% 29.87 in 10.0 mi NW 8.1 mph - N/A   Clear
5:53 PM 97.0 °F - N/A% 29.86 in 10.0 mi NW 5.8 mph - N/A   Clear
6:53 PM 93.9 °F - N/A% 29.85 in 10.0 mi Calm Calm - N/A   Clear
7:53 PM 87.1 °F - N/A% 29.86 in 10.0 mi NNE 3.5 mph - N/A   Clear
8:53 PM 78.1 °F - N/A% 29.88 in 10.0 mi ENE 8.1 mph - N/A   Clear
9:53 PM 75.0 °F - N/A% 29.88 in 10.0 mi NE 8.1 mph - N/A   Clear
10:53 PM 73.0 °F - N/A% 29.87 in 10.0 mi Calm Calm - N/A   Clear
11:53 PM 69.1 °F - N/A% 29.88 in 10.0 mi East 4.6 mph - N/A   Clear